Retour au catalogue

SL-14 DEB

ActifPO
NORAD 45285·DEBRIS·🇷🇺 Russia

Lancé Aug 15, 1991 depuis Plesetsk Cosmodrome

Loading…

Prochains Passages (prochaines 24 heures)

TLE

FraisSource: Space-Track

Époque: Sep 14, 2026, 01:58 UTC

1 45285U 91056X   26257.08212937  .00000096  00000-0  27048-3 0  9998
2 45285  82.5660 129.7302 0109264 211.5057 147.9483 13.00696529312261

Suivez SL-14 DEB en temps réel avec AllMySat

Download on the App Store